AJISAI (EGS)            
1 16908U 86061A   21214.53928370 -.00000080  00000-0  11928-3 0  9995
2 16908  50.0064 219.6578 0011351 330.3848 196.0937 12.44494462258784
COSMOS 1812             
1 17295U 87003A   21214.49595789  .00000989  00000-0  49786-4 0  9992
2 17295  82.5139 100.3508 0002375 337.7354  22.3775 15.16087380886951
SL-14 R/B               
1 17567U 87024B   21214.31752551  .00000096  00000-0  86552-5 0  9992
2 17567  82.5271 228.2547 0020484  56.5447 303.7723 14.83814031838863
COSMOS 1833             
1 17589U 87027A   21214.55856746 -.00000162  00000-0 -60968-4 0  9994
2 17589  70.9193 257.0989 0022526 223.9926 135.9403 14.12915591773214
SL-16 R/B               
1 17590U 87027B   21214.45724788  .00000091  00000-0  69148-4 0  9993
2 17590  71.0010 215.8515 0004927 191.2187 168.8827 14.16802147777376
SL-14 R/B               
1 17912U 87038B   21214.48828377  .00000074  00000-0  61964-5 0  9995
2 17912  82.5004  75.9656 0019008 309.5191  50.4342 14.83088564830045
COSMOS 1844             
1 17973U 87041A   21214.34152419 -.00000350  00000-0 -15777-3 0  9996
2 17973  70.8989 337.0098 0030259  19.9820 340.2479 14.14122490766004
SL-14 R/B               
1 18153U 87055B   21214.48310666  .00000065  00000-0  48955-5 0  9994
2 18153  82.5017 129.2262 0022149 154.0125 206.2207 14.83336970820714
COSMOS 1867             
1 18187U 87060A   21214.35510774 -.00000091  00000-0  35491-5 0  9996
2 18187  65.0123 330.7281 0020580 275.0607  84.8128 14.31124404779446
COSMOS 1892             
1 18421U 87088A   21214.76045372  .00000743  00000-0  35084-4 0  9999
2 18421  82.4981 226.2995 0016529  78.8305 281.4785 15.17736583847144
SL-14 R/B               
1 18749U 88001B   21214.32215041  .00000067  00000-0  51783-5 0  9996
2 18749  82.5164 332.5871 0019420  28.4993   1.3102 14.83268257792772
COSMOS 1933             
1 18958U 88020A   21214.40255418  .00000607  00000-0  41922-4 0  9993
2 18958  82.5288  88.7034 0011086 185.9559 174.1537 15.03966131796841
SL-3 R/B                
1 19046U 88032B   21214.47702740 -.00000154  00000-0 -68922-5 0  9996
2 19046  97.3883 222.8990 0034728 244.6243 115.1386 15.02980277798696
SL-16 R/B               
1 19120U 88039B   21214.38174202 -.00000111  00000-0 -30180-4 0  9999
2 19120  71.0157  20.2044 0020729  32.1441 328.0943 14.19223449719952
COSMOS 1953             
1 19210U 88050A   21214.16019700  .00000233  00000-0  13818-4 0  9991
2 19210  82.5159  11.0626 0014147 148.0260 212.1829 15.06322452804613
SL-8 R/B                
1 19257U 88053B   21214.58672753  .00000002  00000-0  92773-5 0  9996
2 19257  74.0505 324.9871 0020754 205.0795 165.8172 14.37526535735362
COSMOS 1975             
1 19573U 88093A   21214.30149203  .00000229  00000-0  13965-4 0  9996
2 19573  82.5212 326.1318 0013558 194.7436 165.3398 15.05223971765263
SL-14 R/B               
1 19574U 88093B   21214.38876674  .00000089  00000-0  78381-5 0  9992
2 19574  82.5330 175.7714 0021416 182.8417 335.0908 14.83378912751788
SL-16 R/B               
1 19650U 88102B   21214.40040575  .00000215  00000-0  13375-3 0  9995
2 19650  70.9996  85.7688 0012820  42.7136 317.4981 14.15805962689042
INTERCOSMOS 24          
1 20261U 89080A   21214.24022618 -.00000131  00000-0 -42706-4 0  9991
2 20261  82.6058 114.4478 1201845 219.8594 130.7985 12.56216010455573
SL-14 R/B               
1 20262U 89080C   21214.29193071  .00000124  00000-0  28376-4 0  9996
2 20262  82.5947 170.7710 1237982  60.3882 311.4781 12.48975052450277
DELTA 2 R/B(1)          
1 20303U 89085B   21214.55510534  .00003001  00000-0  92069-4 0  9990
2 20303  35.6436 304.1745 0090544 236.8529 122.3486 15.29538914730999
DELTA 1 R/B             
1 20323U 89089B   21214.61760827  .00000024  00000-0  15319-4 0  9990
2 20323  97.1220 301.7453 0072104  18.9531 341.4324 14.48411281672917
ARIANE 40 R/B           
1 20443U 90005H   21214.42710859  .00000013  00000-0  18766-4 0  9999
2 20443  98.5260 280.3526 0010219 191.6066 168.4887 14.38136759651183
DELTA 2 R/B(1)          
1 20453U 90008B   21214.46472658  .00002111  00000-0  11819-3 0  9991
2 20453  35.6252 350.7326 0275749 138.8592 223.3265 14.86693015672376
COSMOS 2058             
1 20465U 90010A   21214.35387277  .00000297  00000-0  22750-4 0  9997
2 20465  82.4870 237.8799 0013784 254.1579 105.8125 14.98245535689842
SL-14 R/B               
1 20466U 90010B   21214.48813788  .00000084  00000-0  77023-5 0  9991
2 20466  82.5018  42.0951 0021960  68.8353 291.5205 14.81431958679589
SL-14 R/B               
1 20511U 90018B   21214.36680587  .00000083  00000-0  78835-5 0  9997
2 20511  82.5248 350.4252 0016759 205.7430 184.2365 14.80086328673892
HST                     
1 20580U 90037B   21214.47470211  .00000531  00000-0  21128-4 0  9997
2 20580  28.4698 120.5582 0002687 194.8298 328.2442 15.09695163517970
SL-16 R/B               
1 20625U 90046B   21214.46779280 -.00000226  00000-0 -92765-4 0  9992
2 20625  70.9973 225.4843 0015615 329.1907  30.8297 14.14673457610748
COSMOS 2084             
1 20663U 90055A   21214.45224573  .00000038  00000-0  21763-4 0  9992
2 20663  62.7924 235.6989 0077126  13.3121 346.9983 14.92276619684686
SL-6 R/B(2)             
1 20666U 90055D   21214.57044514  .00000137  00000-0  30081-4 0  9996
2 20666  62.7846 150.6892 0104015  39.9760 320.8931 14.92529538686128
SL-8 R/B                
1 20775U 90078B   21214.52256439  .00002914  00000-0  13966-3 0  9995
2 20775  82.9239 247.2194 0566044 359.8879   0.2090 14.36157617564691
SL-8 R/B                
1 21088U 91006B   21214.46079034  .00000058  00000-0  42555-4 0  9996
2 21088  82.9449 339.6378 0023750  62.3999 340.6062 13.77174749533058
OKEAN-3                 
1 21397U 91039A   21214.21309827  .00000236  00000-0  20152-4 0  9991
2 21397  82.5235 146.2046 0016356 231.9723 128.0021 14.93132777613536
COSMOS 2151             
1 21422U 91042A   21214.51666844  .00000135  00000-0  10727-4 0  9997
2 21422  82.4986 251.5397 0012743 303.2209  56.7788 14.92278306612134
SL-14 R/B               
1 21423U 91042B   21214.44327979  .00000075  00000-0  69294-5 0  9990
2 21423  82.4956 352.7722 0017456 357.9046   2.2091 14.79835721625489
ERS-1                   
1 21574U 91050A   21214.35678008  .00000021  00000-0  21709-4 0  9997
2 21574  98.6503 175.1552 0033546 143.8869 216.4592 14.37807356574164
ARIANE 40 R/B           
1 21610U 91050F   21214.48133456  .00000010  00000-0  16777-4 0  9992
2 21610  98.4212 284.5392 0004479 102.9394 268.2155 14.40957948576898
INTERCOSMOS 25          
1 21819U 91086A   21214.51211547  .00000211  00000-0  34543-4 0  9998
2 21819  82.5779 239.9451 1517196 115.9479 260.5662 12.05267737293821
SL-8 R/B                
1 21876U 92008B   21214.41347427  .00000062  00000-0  47866-4 0  9998
2 21876  82.9251  76.9744 0035474 144.7307  28.0557 13.75683560478379
SL-8 R/B                
1 21938U 92020B   21214.29282006  .00000049  00000-0  35526-4 0  9993
2 21938  82.9325 321.5461 0028078 308.9273  79.6626 13.75291918470141
COSMOS 2219             
1 22219U 92076A   21214.47377306 -.00000012  00000-0  18431-4 0  9992
2 22219  71.0589 289.0857 0020129 248.4666 111.4311 14.13656323480892
SL-16 R/B               
1 22220U 92076B   21214.52799965  .00000080  00000-0  64335-4 0  9997
2 22220  71.0011 126.2413 0011385 143.9390  29.7473 14.16474117483885
COSMOS 2221             
1 22236U 92080A   21214.36522965  .00000185  00000-0  17402-4 0  9994
2 22236  82.5064  75.3475 0017671  41.5296 318.7260 14.88079578530374
SL-16 R/B               
1 22285U 92093B   21214.50374865 -.00000249  00000-0 -10374-3 0  9995
2 22285  71.0222 290.1605 0005386 323.5053  36.5702 14.15065114475457
COSMOS 2228             
1 22286U 92094A   21214.45842664  .00000223  00000-0  21264-4 0  9999
2 22286  82.5192  31.9815 0021782 152.2208 208.0178 14.88304119525575
SL-16 R/B               
1 22566U 93016B   21214.27151362  .00000281  00000-0  16983-3 0  9998
2 22566  71.0080 143.3999 0010509 349.3779  10.7120 14.14973575464443
COSMOS 2242             
1 22626U 93024A   21214.81311921  .00000198  00000-0  18655-4 0  9999
2 22626  82.5201  59.9491 0019567 150.8088 209.4228 14.88154417530337
SL-16 R/B               
1 22803U 93059B   21214.51270243  .00000088  00000-0  67657-4 0  9996
2 22803  70.9917 312.9842 0019369 252.4653 107.4355 14.16841098441527
